Lid_Strength_Index
7 10 12 11 8 7 6 5 5 7 7 7 6 4 3 1 -0 -0 -0 -1 -1 -1 -1 -2 -2 -2 -1 -2 -2 -2 -2 -2
9 11 9 9 7 6 6 5 6 6 7 5 4 3 2 0 -0 -0 -0 -1 -1 -1 -1 -1 -2 -1 -1 -2 -2 -2 -2 -2
11 11 8 7 6 5 6 5 5 6 6 5 4 2 1 0 -0 0 -0 -1 -1 -1 -1 -1 -1 -1 -1 -1 -2 -2 -2 -2
12 10 8 6 5 5 5 5 5 6 6 4 3 2 1 0 0 -0 -0 -1 -1 -1 -1 -1 -1 -1 -1 -1 -1 -1 -1 -2
10 10 8 7 5 6 6 6 5 5 6 4 3 2 0 0 -0 -0 -0 -0 -1 -1 -1 -1 -1 -1 -1 -1 -1 -1 -1 -1
9 9 8 6 5 5 5 6 5 5 6 5 3 2 0 0 0 0 -0 -0 -0 -1 -1 -1 -1 -1 -1 -1 -1 -1 -1 -1
9 9 7 5 6 5 4 4 4 4 4 3 3 3 1 1 1 1 1 0 -0 -0 -1 -1 -1 -1 -1 -1 -1 -1 -1 -1
6 6 6 6 6 5 5 5 5 4 3 3 3 3 3 2 2 2 1 1 -0 -0 -0 -1 -1 -1 -1 -1 -1 -1 -1 -2
6 5 5 6 6 4 6 6 5 5 4 3 2 3 3 2 2 2 1 1 0 -0 -1 -0 -0 -1 -1 -1 -1 -1 -1 -1
5 5 5 6 5 6 5 5 3 3 3 3 3 3 3 3 2 2 1 1 0 -0 -0 -0 -0 -0 -1 -0 -1 -1 -1 -2
5 5 5 5 6 6 5 4 3 3 3 3 3 3 2 2 1 1 1 1 0 -0 -0 -0 -0 -1 -1 -0 -0 -1 -1 -1
5 5 5 6 7 6 6 4 4 4 4 3 3 3 2 2 2 2 1 1 0 0 -0 -0 -0 -1 -0 -1 -1 -1 -1 -1
8 7 8 7 9 9 6 5 5 5 4 4 3 3 3 2 2 1 1 1 1 0 -0 -0 -0 -0 -1 -1 -1 -0 -1 -1
8 8 8 8 11 7 6 6 6 5 5 5 4 3 2 2 1 1 1 1 0 0 0 -0 -0 -0 -0 -0 -1 -0 -1 -1
11 9 9 9 10 8 6 6 6 5 5 5 4 3 2 2 1 2 1 1 1 0 0 0 -0 -0 -1 -1 -0 -1 -1 -1
12 10 10 10 10 8 6 6 6 5 5 5 4 3 2 2 2 1 1 1 1 1 0 -0 -0 -0 -0 -0 -0 -1 -0 -0
10 9 10 9 9 8 6 6 6 6 6 5 4 3 4 3 2 1 1 1 1 1 0 1 1 1 1 1 1 0 -0 -1
10 9 9 9 10 8 6 6 6 6 6 5 4 3 4 3 2 2 2 1 1 1 1 0 1 0 -0 0 0 -0 -0 -1
12 10 9 10 11 9 7 6 6 6 5 4 4 4 4 3 3 2 2 2 1 1 1 0 0 0 0 -0 0 0 0 -0
12 12 13 10 14 10 8 8 7 6 5 4 4 4 4 4 3 3 2 1 1 1 1 0 -0 1 1 1 2 1 0 -0